Location: Hradec Kralove
(50.2170°N, 15.8330°E)
Time: 12:09:15
(UTC+02:00)

Explorer 7 - Pass Details

Date: 03 February 2023
Orbit: 478 x 657 km, 50.3° (Epoch: 26 March)

Event Time Altitude Azimuth Distance (km) Brightness Sun altitude
Rises 12:22:29 0° 231° (SW) 2,674 10.9 23.2°
Reaches altitude 10° 12:24:43 10° 224° (SW) 1,816 10.3 23.2°
Maximum altitude 12:28:39 44° 152° (SSE) 794 8.8 23.1°
Drops below altitude 10° 12:32:52 10° 81° (E) 1,935 9.5 23.1°
Sets 12:35:18 0° 75° (ENE) 2,872 10.3 23.0°
